View from above orbital plane
|
View from above satellite
|
Ground track
|
The orbit data is extracted from the following two-line orbital elements,
1 07530U 74089B 13138.51953312 -.00000045 00000-0 -89679-5 0 6833
2 07530 101.4287 129.1046 0011736 348.8176 156.9669 12.53596372762064
| Epoch (UTC): | 18 May 2013 12:28:07 |
| Eccentricity: | 0.0011736 |
| inclination: | 101.4287° |
| perigee height: | 1440 km |
| apogee height: | 1458 km |
| right ascension of ascending node: | 129.1046° |
| argument of perigee: | 348.8176° |
| revolutions per day: | 12.53596372 |
| mean anomaly at epoch: | 156.9669° |
| orbit number at epoch: | 76206 |
The dashed part of the orbit path shows where the satellite is in the earth's shadow,
|
|